Storm Lake
Saturday 9:55 PM
Temperature34° (45°/19°)
Dew Point27°
Feels Like27°
Relative Humidity75
%
Visibility10
mi
Pressure1018.6
mb
Wind DirectionSE
140°
Wind Speed8
mph
Precipitation Today0.00"

Last 30 Observations

Time PresWx Temp DP Feels RH% Vsby Pressure Ceiling Direction Speed 1h Precip
9:55 PM 34° 27° 27°75
%
10
mi
1018.6
mb
SE
140°
8
mph
0.00"
9:35 PM 36° 27° 29°69
%
10
mi
1018.6
mb
SE
140°
9
mph
0.00"
9:15 PM 34° 27° 27°75
%
10
mi
1018.6
mb
SE
130°
8
mph
0.00"
8:55 PM 36° 25° 30°64
%
10
mi
1019.0
mb
SE
140°
7
mph
0.00"
8:35 PM 36° 25° 32°64
%
10
mi
1019.0
mb
ESE
120°
5
mph
0.00"
8:15 PM 36° 25° 31°64
%
10
mi
1019.0
mb
SE
130°
6
mph
0.00"
7:55 PM 39° 25° 35°56
%
10
mi
1019.0
mb
SE
140°
6
mph
0.00"
7:35 PM 41° 25° 35°52
%
10
mi
1019.0
mb
SE
140°
9
mph
0.00"
7:15 PM 43° 25° 37°49
%
10
mi
1018.6
mb
SE
140°
9
mph
0.00"
6:55 PM 45° 23° 39°42
%
10
mi
1018.6
mb
SE
140°
10
mph
0.00"
6:35 PM 45° 23° 40°42
%
10
mi
1019.0
mb
SE
140°
9
mph
(G15)
0.00"
6:15 PM 45° 23° 39°42
%
10
mi
1018.6
mb
ESE
120°
10
mph
0.00"
5:55 PM 45° 23° 40°42
%
10
mi
1018.6
mb
ESE
120°
8
mph
(G17)
0.00"
5:35 PM 45° 21° 39°39
%
10
mi
1018.6
mb
SE
130°
10
mph
0.00"
5:15 PM 45° 23° 39°42
%
10
mi
1018.6
mb
E
100°
10
mph
0.00"
4:55 PM 45° 21° 39°39
%
10
mi
1019.0
mb
E
100°
10
mph
(G16)
0.00"
4:35 PM 45° 21° 39°39
%
10
mi
1019.0
mb
SE
130°
10
mph
0.00"
4:15 PM 45° 21° 40°39
%
10
mi
1019.3
mb
ESE
110°
9
mph
0.00"
3:55 PM 45° 21° 40°39
%
10
mi
1019.7
mb
S
170°
8
mph
0.00"
3:35 PM 43° 21° 39°42
%
10
mi
1020.0
mb
ESE
110°
6
mph
(G15)
0.00"
3:15 PM 43° 21° 38°42
%
10
mi
1020.3
mb
ESE
110°
8
mph
0.00"
2:55 PM 43° 23° 37°45
%
10
mi
1020.3
mb
E
90°
10
mph
0.00"
2:35 PM 41° 21° 35°45
%
10
mi
1021.0
mb
E
90°
9
mph
(G16)
0.00"
2:15 PM 39° 19° 33°45
%
10
mi
1021.0
mb
ESE
110°
10
mph
0.00"
1:55 PM 39° 19° 33°45
%
10
mi
1021.3
mb
E
90°
9
mph
0.00"
1:35 PM 39° 19° 34°45
%
10
mi
1021.7
mb
Variable 7
mph
0.00"
1:15 PM 37° 21° 31°52
%
10
mi
1022.0
mb
ESE
110°
9
mph
0.00"
12:55 PM 36° 21° 29°55
%
10
mi
1022.4
mb
E
90°
9
mph
0.00"
12:35 PM 36° 21° 29°55
%
10
mi
1022.7
mb
ENE
60°
8
mph
0.00"
12:15 PM 34° 21° 27°60
%
10
mi
1023.0
mb
ENE
60°
8
mph
0.00"